SCP
0 0 0 0 0 0 0 0 0 0 0 0 0 0 0 0 0 0 0 0 0 0 0 0 0 0 0 0 0 0 0 0 0 0 0 0 0 0 0 0 0 0 0 0
0 0 0 0 0 0 0 0 0 0 0 0 0 0 0 0 0 0 0 0 0 0 0 0 0 0 0 0 0 0 0 0 0 0 0 0 0 0 0 0 0 0 0 0
0 0 0 0 0 0 0 0 0 0 0 0 0 0 0 -0 0 0 0 0 0 0 0 0 0 0 0 0 0 0 0 0 0 0 0 0 0 0 0 0 0 0 0 0
0 0 0 0 0 0 0 0 0 0 0 0 0 -0 0 0 0 0 0 0 0 0 0 0 0 0 0 0 0 0 0 0 0 0 0 0 0 0 0 0 0 0 0 0
0 0 0 0 0 0 0 0 0 0 0 0 0 0 -0 0 0 0 0 0 0 0 0 0 0 0 0 0 0 0 0 0 0 0 0 0 0 0 0 0 0 0 0 0
0 0 0 0 0 0 0 0 0 0 0 0 -0 0 -0 0 0 0 0 0 0 0 0 0 0 0 0 0 0 0 0 0 0 0 0 0 0 0 0 0 0 0 0 0
0 0 0 0 0 0 0 0 0 0 0 0 0 -0 -0 -0 0 0 0 0 0 0 0 0 0 0 0 0 0 0 0 0 0 0 0 0 0 0 0 0 0 0 0 0
0 0 0 0 0 0 0 0 0 0 0 0 0 0 -0 -0 -0 0 0 0 0 0 0 0 0 0 0 0 0 0 0 0 0 0 0 0 0 0 0 0 0 0 0 0
0 0 0 0 0 0 0 0 0 0 0 0 0 0 -0 0 0 0 0 0 0 0 0 0 0 0 0 0 0 0 0 0 0 0 0 0 0 0 0 0 0 0 0 0
0 0 0 0 0 0 0 0 0 0 0 0 0 0 0 0 0 0 0 0 0 0 0 0 0 0 0 0 0 0 0 0 0 0 0 0 0 0 0 0 0 0 0 0
0 0 0 0 0 0 0 0 0 0 0 0 -0 0 -0 0 0 0 0 0 0 0 0 0 0 0 0 0 0 0 0 0 0 0 0 0 0 0 0 0 0 0 0 0
0 0 0 0 0 0 0 0 0 0 0 0 0 -0 0 0 0 0 0 0 0 0 0 0 0 0 0 0 0 0 0 0 0 0 0 0 0 0 0 0 0 0 0 0
0 0 0 0 0 0 0 0 0 0 0 0 0 0 0 0 0 0 0 0 0 0 0 0 0 0 0 0 0 0 0 0 0 0 0 0 0 0 0 0 0 0 0 0
0 0 0 0 0 0 0 0 0 0 0 0 0 0 0 0 0 0 0 0 0 0 0 0 0 0 0 0 0 0 0 0 0 0 0 0 0 0 0 0 0 0 0 0
0 0 0 0 0 0 0 0 0 0 0 0 0 0 0 0 0 0 0 0 0 0 0 0 0 0 0 0 0 0 0 0 0 0 0 0 0 0 0 0 0 0 0 0
0 0 0 0 0 0 0 0 0 0 0 0 0 0 0 0 0 0 0 0 0 0 0 0 0 0 0 0 0 0 0 0 0 0 0 0 0 0 0 0 0 0 0 0
0 0 0 0 0 0 0 0 0 0 0 0 0 0 0 0 0 0 0 0 0 0 0 0 -0 0 0 0 0 0 0 0 0 0 0 0 0 0 0 0 0 0 0 0
0 0 -0 0 0 0 0 0 0 0 0 0 0 0 0 0 0 0 0 0 0 0 0 0 0 0 0 0 0 0 0 0 0 0 0 0 0 0 0 0 0 0 0 0
0 0 0 0 0 0 0 0 0 0 0 0 0 0 0 0 0 0 0 0 0 0 0 0 0 0 0 0 0 0 0 0 0 0 0 0 0 0 0 0 0 0 0 0
-0 0 0 0 0 0 0 0 0 0 0 0 0 0 0 0 0 0 0 0 0 0 0 0 0 0 0 0 0 0 0 0 0 0 0 0 0 0 0 0 0 0 0 0
-0 0 0 0 0 0 0 0 0 0 0 0 0 0 0 0 0 0 0 0 0 0 0 0 0 0 0 0 0 0 0 0 0 0 0 0 0 0 0 0 0 0 0 0
0 0 0 0 0 0 0 0 0 0 0 0 0 0 0 0 0 0 0 0 0 0 0 0 0 0 0 0 0 0 0 0 0 0 0 0 0 0 0 0 0 0 0 0
0 0 0 0 0 0 0 0 0 0 0 0 0 0 0 0 0 0 0 0 0 0 0 0 0 0 0 0 0 0 0 0 0 0 0 0 0 0 0 0 0 0 0 0
0 0 0 0 0 0 0 0 0 0 0 0 0 0 0 0 0 0 0 0 0 0 0 0 0 0 0 0 0 0 0 0 0 0 0 0 0 0 0 0 0 0 0 0
0 0 0 0 0 0 0 0 0 0 0 0 0 0 0 0 0 0 0 0 0 0 0 0 0 0 0 0 0 0 0 0 0 0 0 0 0 0 0 0 0 0 0 0
0 0 0 0 0 0 0 0 0 0 0 0 0 0 0 0 0 0 0 0 0 0 0 0 0 0 0 0 0 0 0 0 0 0 0 0 0 0 0 0 0 0 0 0
Wind_Speed_500mb
12 8 34 34 31 6 9 24 24 16 10 25 41 35 47 47 34 50 61 83 82 91 89 81 83 78 80 86 91 88 85 80 77 79 82 75 74 66 60 57 51 47 46 46
11 40 37 10 19 25 11 20 35 18 12 13 37 48 40 47 39 58 67 74 84 94 93 91 88 83 82 82 89 92 89 85 82 79 75 78 71 71 64 59 57 54 51 48
34 12 38 27 24 30 32 40 42 30 4 1 25 49 41 50 54 63 80 76 78 95 98 98 93 90 86 87 86 88 87 87 82 81 74 74 72 67 69 68 65 61 56 52
28 49 22 24 43 34 45 45 40 42 14 14 19 26 44 57 48 42 75 73 89 95 100 95 96 95 95 91 88 87 84 85 83 85 80 80 83 82 79 73 68 63 58 55
17 17 32 33 49 35 32 26 33 29 26 15 23 11 33 16 50 49 54 76 102 99 95 96 100 101 95 90 94 89 83 81 84 89 87 82 83 81 75 72 68 66 62 60
22 1 16 31 27 39 28 4 6 4 3 14 40 20 31 41 54 20 46 86 84 96 105 99 93 97 99 96 94 87 85 84 85 90 89 86 84 84 81 78 72 65 64 66
13 13 4 11 18 21 33 24 11 9 13 27 18 25 66 27 23 39 41 75 84 96 105 100 97 99 103 103 94 86 87 90 89 88 88 89 84 85 82 75 73 69 66 68
27 18 38 27 41 22 51 30 12 19 16 12 16 23 37 50 72 43 41 49 74 78 101 102 99 98 100 100 92 87 88 89 90 87 85 87 85 84 81 76 74 71 68 59
27 33 12 24 17 32 22 41 50 2 5 1 8 15 18 21 23 22 50 37 40 64 77 91 98 94 95 94 89 84 83 83 86 84 83 85 86 84 82 79 74 70 67 63
11 12 17 17 25 13 15 22 14 9 22 13 13 11 24 12 36 22 19 42 49 35 54 72 86 93 86 87 83 82 79 77 74 79 81 82 83 82 81 81 78 72 68 65
40 26 8 22 23 38 12 18 10 9 5 24 5 18 18 48 26 27 25 51 52 49 44 44 64 88 86 86 84 83 84 81 81 76 75 81 82 83 85 86 80 74 67 64
50 23 18 38 13 18 36 22 19 13 15 10 4 21 4 14 19 19 36 44 41 45 48 46 47 50 72 85 81 83 80 78 75 72 73 75 78 81 83 84 81 75 69 67
26 14 14 9 2 4 24 18 36 8 7 25 18 11 2 8 12 19 33 37 36 36 40 49 52 48 47 54 65 71 67 69 72 72 72 74 79 83 82 77 71 71 69 69
32 22 30 30 26 16 24 40 48 31 12 11 22 10 14 17 14 14 26 32 32 32 34 42 49 48 45 46 49 54 57 60 64 67 68 70 71 71 70 67 66 68 68 75
26 27 41 40 6 30 31 48 51 43 31 30 24 14 20 27 26 23 33 36 38 36 41 46 49 47 45 45 46 46 44 44 46 48 48 45 45 49 53 57 59 62 64 66
30 16 25 43 36 28 31 43 46 57 43 30 18 21 12 7 19 24 43 46 43 43 41 42 42 43 43 40 39 39 38 36 33 31 32 35 35 37 41 44 48 51 54 56
5 5 8 36 31 23 25 51 54 44 45 48 35 26 8 11 20 35 49 55 55 53 51 50 49 46 42 38 35 33 32 31 30 29 30 32 33 35 37 41 45 47 47 48
13 15 10 5 19 27 22 48 53 70 69 59 38 30 23 27 54 58 59 64 59 55 52 50 46 42 39 36 32 31 30 28 27 27 30 32 33 35 35 37 35 33 32 32
35 19 13 9 18 5 15 26 61 44 48 50 60 34 17 24 31 27 53 56 61 58 53 50 44 39 35 33 31 29 28 29 30 31 30 29 27 27 27 29 29 30 31 31
31 33 24 8 11 25 9 15 57 16 29 44 61 50 20 28 20 23 57 57 52 55 56 54 49 44 38 36 34 31 30 30 30 30 29 28 27 27 30 33 34 34 32 30
8 20 37 16 11 14 14 4 64 27 25 48 76 73 53 31 42 53 57 62 59 56 55 51 46 42 40 36 34 34 34 34 33 32 30 29 28 28 28 29 30 31 31 31
22 20 14 10 8 33 17 38 42 42 14 29 80 85 81 66 39 59 65 63 61 59 55 50 44 40 38 35 33 33 31 29 27 25 23 21 19 18 20 22 23 25 27 26
13 17 15 23 15 6 43 4 32 5 12 18 58 79 89 86 64 67 69 64 60 58 56 48 43 42 39 35 31 28 26 22 18 16 15 14 13 11 9 7 7 9 11 14
15 10 7 6 11 5 19 14 20 11 5 11 23 56 80 80 77 76 73 68 63 56 51 47 45 43 41 38 35 32 34 32 29 26 23 20 17 15 14 11 6 3 4 7
4 5 10 7 5 2 4 8 12 19 11 17 26 52 69 77 72 77 72 67 62 58 55 52 51 50 50 46 41 39 37 35 30 28 26 22 18 15 13 12 11 9 10 10
7 5 10 14 10 7 8 5 11 22 27 30 47 55 60 76 84 77 74 69 67 65 62 59 57 54 53 48 46 41 37 33 27 23 22 19 16 12 9 7 5 5 6 9
Wind_Direction_500mb
174 205 223 209 217 251 211 228 229 239 247 313 246 246 247 240 233 236 231 226 226 227 231 229 227 221 217 219 225 224 224 223 224 224 225 226 226 227 231 235 236 235 237 238
190 227 230 250 210 216 179 225 244 276 238 288 274 265 248 249 233 231 232 233 230 233 228 229 230 226 220 217 221 222 224 224 224 226 227 227 228 230 236 239 239 240 238 239
205 193 201 205 208 202 210 221 234 239 210 234 297 274 261 260 235 234 240 239 239 235 229 227 229 229 226 221 220 224 223 226 226 228 226 228 230 233 234 236 239 240 241 241
232 235 183 195 220 197 228 221 235 244 229 224 175 275 255 248 242 224 233 234 238 239 228 229 229 228 226 226 224 224 225 227 231 227 227 227 228 228 232 234 238 240 241 242
219 166 204 219 217 195 239 217 215 236 238 270 240 259 266 244 241 227 220 228 233 231 226 225 229 229 229 229 228 223 227 228 230 230 228 228 232 235 239 240 242 240 240 243
243 36 207 223 221 205 219 297 138 148 78 238 235 211 251 237 239 229 220 228 227 227 230 227 230 232 228 229 231 227 227 228 229 229 230 231 232 234 235 237 239 237 237 240
209 213 207 177 207 210 210 198 217 201 197 238 188 208 247 241 250 224 216 226 225 225 229 227 224 226 224 225 230 228 228 228 229 230 231 232 233 234 238 239 240 240 240 240
206 226 202 202 210 199 206 207 217 226 212 219 139 212 244 223 245 244 242 243 231 224 229 229 225 224 225 225 228 229 229 229 230 230 231 231 234 235 238 241 244 245 246 249
201 231 160 193 181 197 193 214 221 158 339 58 208 267 282 250 264 233 240 232 224 226 227 227 224 222 223 225 227 227 229 231 232 232 233 233 235 237 240 244 247 251 254 253
220 258 196 180 195 231 211 176 188 239 203 237 231 241 230 219 229 228 228 225 228 219 219 223 224 223 223 226 228 228 229 231 234 234 234 237 239 243 246 249 251 253 257 258
228 242 176 160 196 188 172 198 214 166 210 226 265 252 195 221 226 210 216 217 210 201 202 211 220 225 224 225 227 228 226 228 230 234 236 237 241 244 249 252 256 257 258 259
207 219 222 215 181 212 207 201 177 198 202 250 220 248 216 226 238 212 201 204 204 206 203 202 211 215 217 220 225 227 226 228 232 235 237 239 242 245 248 252 255 257 255 252
188 223 237 170 339 350 211 198 204 246 1 208 192 242 232 202 209 213 175 180 187 193 198 203 205 203 201 207 216 221 223 223 227 231 233 236 238 241 244 248 250 250 248 247
200 209 215 215 213 154 198 196 201 194 180 193 227 202 201 210 217 206 195 184 187 188 188 190 193 196 198 200 206 210 216 222 226 230 233 235 238 241 244 245 245 247 247 246
223 247 216 229 243 176 201 201 193 206 208 213 212 239 219 198 202 199 189 180 181 185 188 189 191 193 198 201 201 201 206 211 213 215 217 220 224 229 234 237 240 243 245 247
213 256 226 236 239 200 201 201 200 213 213 250 294 238 235 159 171 177 186 180 181 185 184 181 182 184 182 180 178 179 183 186 189 194 203 207 210 218 225 229 233 236 239 242
228 266 192 239 209 193 226 197 193 206 219 216 225 243 200 166 195 192 184 182 178 175 171 165 161 160 161 163 168 172 178 187 191 194 208 215 217 223 230 235 238 242 245 250
234 234 278 263 145 209 242 192 200 201 207 207 215 210 197 188 196 185 180 175 176 173 166 163 161 162 164 169 172 184 191 199 205 208 214 223 227 231 236 243 248 253 256 256
207 206 254 247 211 314 243 205 194 185 224 213 219 227 202 174 169 216 191 186 179 175 172 168 169 172 179 186 188 195 201 207 212 217 224 234 243 243 241 247 249 249 249 248
222 214 206 218 196 222 231 176 200 189 258 214 213 209 182 150 177 211 200 199 191 182 183 180 180 183 186 186 188 192 199 208 218 225 230 238 244 247 247 248 248 248 247 248
188 192 201 193 242 269 239 168 145 153 240 212 203 204 191 184 205 196 187 187 188 179 176 179 182 183 186 194 199 204 211 218 227 235 241 247 250 250 250 248 246 244 243 247
188 181 195 190 218 246 160 143 164 208 192 213 195 198 200 204 193 174 175 175 170 175 178 180 182 184 187 192 197 201 204 207 213 219 221 224 225 226 226 231 236 240 243 245
246 209 193 194 220 318 175 194 212 151 197 191 201 201 196 191 189 177 170 170 170 173 172 172 180 179 177 178 178 178 174 174 178 181 181 180 179 177 184 198 221 237 248 258
206 268 215 112 218 272 214 232 234 280 230 184 199 193 188 184 178 169 164 161 163 164 164 166 168 165 159 159 160 161 153 150 149 147 141 136 135 128 123 113 99 47 332 302
178 268 192 276 270 345 258 218 214 228 231 198 188 186 187 186 170 167 162 160 160 159 158 160 159 153 147 144 145 141 141 135 135 132 127 122 109 99 90 77 62 35 9 350
120 274 211 225 22 334 1 331 181 180 175 173 172 157 162 173 166 163 155 155 156 155 153 154 150 147 142 142 141 136 132 126 124 127 124 121 118 116 100 72 49 8 330 318
Wind_Speed_850mb
12 8 34 34 31 6 9 24 24 16 10 25 41 35 47 47 34 50 61 83 82 91 89 81 83 78 80 86 91 88 85 80 77 79 82 75 74 66 60 57 51 47 46 46
11 40 37 10 19 25 11 20 35 18 12 13 37 48 40 47 39 58 67 74 84 94 93 91 88 83 82 82 89 92 89 85 82 79 75 78 71 71 64 59 57 54 51 48
34 12 38 27 24 30 32 40 42 30 4 1 25 49 41 50 54 63 80 76 78 95 98 98 93 90 86 87 86 88 87 87 82 81 74 74 72 67 69 68 65 61 56 52
28 49 22 24 43 34 45 45 40 42 14 14 19 26 44 57 48 42 75 73 89 95 100 95 96 95 95 91 88 87 84 85 83 85 80 80 83 82 79 73 68 63 58 55
17 17 32 33 49 35 32 26 33 29 26 15 23 11 33 16 50 49 54 76 102 99 95 96 100 101 95 90 94 89 83 81 84 89 87 82 83 81 75 72 68 66 62 60
22 1 16 31 27 39 28 4 6 4 3 14 40 20 31 41 54 20 46 86 84 96 105 99 93 97 99 96 94 87 85 84 85 90 89 86 84 84 81 78 72 65 64 66
13 13 4 11 18 21 33 24 11 9 13 27 18 25 66 27 23 39 41 75 84 96 105 100 97 99 103 103 94 86 87 90 89 88 88 89 84 85 82 75 73 69 66 68
27 18 38 27 41 22 51 30 12 19 16 12 16 23 37 50 72 43 41 49 74 78 101 102 99 98 100 100 92 87 88 89 90 87 85 87 85 84 81 76 74 71 68 59
27 33 12 24 17 32 22 41 50 2 5 1 8 15 18 21 23 22 50 37 40 64 77 91 98 94 95 94 89 84 83 83 86 84 83 85 86 84 82 79 74 70 67 63
11 12 17 17 25 13 15 22 14 9 22 13 13 11 24 12 36 22 19 42 49 35 54 72 86 93 86 87 83 82 79 77 74 79 81 82 83 82 81 81 78 72 68 65
40 26 8 22 23 38 12 18 10 9 5 24 5 18 18 48 26 27 25 51 52 49 44 44 64 88 86 86 84 83 84 81 81 76 75 81 82 83 85 86 80 74 67 64
50 23 18 38 13 18 36 22 19 13 15 10 4 21 4 14 19 19 36 44 41 45 48 46 47 50 72 85 81 83 80 78 75 72 73 75 78 81 83 84 81 75 69 67
26 14 14 9 2 4 24 18 36 8 7 25 18 11 2 8 12 19 33 37 36 36 40 49 52 48 47 54 65 71 67 69 72 72 72 74 79 83 82 77 71 71 69 69
32 22 30 30 26 16 24 40 48 31 12 11 22 10 14 17 14 14 26 32 32 32 34 42 49 48 45 46 49 54 57 60 64 67 68 70 71 71 70 67 66 68 68 75
26 27 41 40 6 30 31 48 51 43 31 30 24 14 20 27 26 23 33 36 38 36 41 46 49 47 45 45 46 46 44 44 46 48 48 45 45 49 53 57 59 62 64 66
30 16 25 43 36 28 31 43 46 57 43 30 18 21 12 7 19 24 43 46 43 43 41 42 42 43 43 40 39 39 38 36 33 31 32 35 35 37 41 44 48 51 54 56
5 5 8 36 31 23 25 51 54 44 45 48 35 26 8 11 20 35 49 55 55 53 51 50 49 46 42 38 35 33 32 31 30 29 30 32 33 35 37 41 45 47 47 48
13 15 10 5 19 27 22 48 53 70 69 59 38 30 23 27 54 58 59 64 59 55 52 50 46 42 39 36 32 31 30 28 27 27 30 32 33 35 35 37 35 33 32 32
35 19 13 9 18 5 15 26 61 44 48 50 60 34 17 24 31 27 53 56 61 58 53 50 44 39 35 33 31 29 28 29 30 31 30 29 27 27 27 29 29 30 31 31
31 33 24 8 11 25 9 15 57 16 29 44 61 50 20 28 20 23 57 57 52 55 56 54 49 44 38 36 34 31 30 30 30 30 29 28 27 27 30 33 34 34 32 30
8 20 37 16 11 14 14 4 64 27 25 48 76 73 53 31 42 53 57 62 59 56 55 51 46 42 40 36 34 34 34 34 33 32 30 29 28 28 28 29 30 31 31 31
22 20 14 10 8 33 17 38 42 42 14 29 80 85 81 66 39 59 65 63 61 59 55 50 44 40 38 35 33 33 31 29 27 25 23 21 19 18 20 22 23 25 27 26
13 17 15 23 15 6 43 4 32 5 12 18 58 79 89 86 64 67 69 64 60 58 56 48 43 42 39 35 31 28 26 22 18 16 15 14 13 11 9 7 7 9 11 14
15 10 7 6 11 5 19 14 20 11 5 11 23 56 80 80 77 76 73 68 63 56 51 47 45 43 41 38 35 32 34 32 29 26 23 20 17 15 14 11 6 3 4 7
4 5 10 7 5 2 4 8 12 19 11 17 26 52 69 77 72 77 72 67 62 58 55 52 51 50 50 46 41 39 37 35 30 28 26 22 18 15 13 12 11 9 10 10
7 5 10 14 10 7 8 5 11 22 27 30 47 55 60 76 84 77 74 69 67 65 62 59 57 54 53 48 46 41 37 33 27 23 22 19 16 12 9 7 5 5 6 9
Wind_Direction_850mb
174 205 223 209 217 251 211 228 229 239 247 313 246 246 247 240 233 236 231 226 226 227 231 229 227 221 217 219 225 224 224 223 224 224 225 226 226 227 231 235 236 235 237 238
190 227 230 250 210 216 179 225 244 276 238 288 274 265 248 249 233 231 232 233 230 233 228 229 230 226 220 217 221 222 224 224 224 226 227 227 228 230 236 239 239 240 238 239
205 193 201 205 208 202 210 221 234 239 210 234 297 274 261 260 235 234 240 239 239 235 229 227 229 229 226 221 220 224 223 226 226 228 226 228 230 233 234 236 239 240 241 241
232 235 183 195 220 197 228 221 235 244 229 224 175 275 255 248 242 224 233 234 238 239 228 229 229 228 226 226 224 224 225 227 231 227 227 227 228 228 232 234 238 240 241 242
219 166 204 219 217 195 239 217 215 236 238 270 240 259 266 244 241 227 220 228 233 231 226 225 229 229 229 229 228 223 227 228 230 230 228 228 232 235 239 240 242 240 240 243
243 36 207 223 221 205 219 297 138 148 78 238 235 211 251 237 239 229 220 228 227 227 230 227 230 232 228 229 231 227 227 228 229 229 230 231 232 234 235 237 239 237 237 240
209 213 207 177 207 210 210 198 217 201 197 238 188 208 247 241 250 224 216 226 225 225 229 227 224 226 224 225 230 228 228 228 229 230 231 232 233 234 238 239 240 240 240 240
206 226 202 202 210 199 206 207 217 226 212 219 139 212 244 223 245 244 242 243 231 224 229 229 225 224 225 225 228 229 229 229 230 230 231 231 234 235 238 241 244 245 246 249
201 231 160 193 181 197 193 214 221 158 339 58 208 267 282 250 264 233 240 232 224 226 227 227 224 222 223 225 227 227 229 231 232 232 233 233 235 237 240 244 247 251 254 253
220 258 196 180 195 231 211 176 188 239 203 237 231 241 230 219 229 228 228 225 228 219 219 223 224 223 223 226 228 228 229 231 234 234 234 237 239 243 246 249 251 253 257 258
228 242 176 160 196 188 172 198 214 166 210 226 265 252 195 221 226 210 216 217 210 201 202 211 220 225 224 225 227 228 226 228 230 234 236 237 241 244 249 252 256 257 258 259
207 219 222 215 181 212 207 201 177 198 202 250 220 248 216 226 238 212 201 204 204 206 203 202 211 215 217 220 225 227 226 228 232 235 237 239 242 245 248 252 255 257 255 252
188 223 237 170 339 350 211 198 204 246 1 208 192 242 232 202 209 213 175 180 187 193 198 203 205 203 201 207 216 221 223 223 227 231 233 236 238 241 244 248 250 250 248 247
200 209 215 215 213 154 198 196 201 194 180 193 227 202 201 210 217 206 195 184 187 188 188 190 193 196 198 200 206 210 216 222 226 230 233 235 238 241 244 245 245 247 247 246
223 247 216 229 243 176 201 201 193 206 208 213 212 239 219 198 202 199 189 180 181 185 188 189 191 193 198 201 201 201 206 211 213 215 217 220 224 229 234 237 240 243 245 247
213 256 226 236 239 200 201 201 200 213 213 250 294 238 235 159 171 177 186 180 181 185 184 181 182 184 182 180 178 179 183 186 189 194 203 207 210 218 225 229 233 236 239 242
228 266 192 239 209 193 226 197 193 206 219 216 225 243 200 166 195 192 184 182 178 175 171 165 161 160 161 163 168 172 178 187 191 194 208 215 217 223 230 235 238 242 245 250
234 234 278 263 145 209 242 192 200 201 207 207 215 210 197 188 196 185 180 175 176 173 166 163 161 162 164 169 172 184 191 199 205 208 214 223 227 231 236 243 248 253 256 256
207 206 254 247 211 314 243 205 194 185 224 213 219 227 202 174 169 216 191 186 179 175 172 168 169 172 179 186 188 195 201 207 212 217 224 234 243 243 241 247 249 249 249 248
222 214 206 218 196 222 231 176 200 189 258 214 213 209 182 150 177 211 200 199 191 182 183 180 180 183 186 186 188 192 199 208 218 225 230 238 244 247 247 248 248 248 247 248
188 192 201 193 242 269 239 168 145 153 240 212 203 204 191 184 205 196 187 187 188 179 176 179 182 183 186 194 199 204 211 218 227 235 241 247 250 250 250 248 246 244 243 247
188 181 195 190 218 246 160 143 164 208 192 213 195 198 200 204 193 174 175 175 170 175 178 180 182 184 187 192 197 201 204 207 213 219 221 224 225 226 226 231 236 240 243 245
246 209 193 194 220 318 175 194 212 151 197 191 201 201 196 191 189 177 170 170 170 173 172 172 180 179 177 178 178 178 174 174 178 181 181 180 179 177 184 198 221 237 248 258
206 268 215 112 218 272 214 232 234 280 230 184 199 193 188 184 178 169 164 161 163 164 164 166 168 165 159 159 160 161 153 150 149 147 141 136 135 128 123 113 99 47 332 302
178 268 192 276 270 345 258 218 214 228 231 198 188 186 187 186 170 167 162 160 160 159 158 160 159 153 147 144 145 141 141 135 135 132 127 122 109 99 90 77 62 35 9 350
120 274 211 225 22 334 1 331 181 180 175 173 172 157 162 173 166 163 155 155 156 155 153 154 150 147 142 142 141 136 132 126 124 127 124 121 118 116 100 72 49 8 330 318